Preview of NWS' New Version of Forecast
This preview is not operational and should not be used for support decisions.

Regional Weather Roundup (RWR)

Issued by Gray - Portland, ME (GYX)

                            
883 
ASUS41 KGYX 172010
RWRGYX
WEATHER ROUNDUP FOR MAINE AND NEW HAMPSHIRE
NATIONAL WEATHER SERVICE GRAY ME
300 PM EST SAT FEB 17 2018

MEZ002-005-006-010-012-015-018-020-021-024-026-027-029-172100-
MAINE
  
CITY           SKY/WX    TMP DP  RH WIND       PRES   REMARKS
PORTLAND       FAIR      29  16  58 S10G24    30.36R WCI  20          
SANFORD        FAIR      30  15  53 SE6       30.33R                  
BAR HARBOR     FAIR      27   5  39 S5        30.33F                  
WISCASSET      FAIR      29   9  43 S7        30.36R                  
ROCKLAND       FAIR      27  11  51 S8        30.36R                  
FRYEBURG       FAIR      33   3  28 SW7       30.28R                  
LEWISTONAUBURN FAIR      29  11  47 S13G18    30.32R WCI  19          
AUGUSTA        FAIR      29   4  34 S7        30.31R                  
WATERVILLE     FAIR      29   3  33 VRB5      30.26S                  
BANGOR         PTSUNNY   26   3  37 SE3       30.31F                  
GREENVILLE       N/A     24  -1  33 VRB7      30.16S                  
MILLINOCKET    FAIR      26   0  32 CALM      30.28F                  
HOULTON        FAIR      22  -2  35 SW7       30.25S                  
PRESQUE ISLE   FAIR      22   0  38 CALM      30.25S                  
FRENCHVILLE    FAIR      17  -2  43 S6        30.18F                  
CARIBOU        FAIR      20  -2  38 S6        30.22F                  
$$

NHZ002-005-008-009-011-012-014-172100-
NEW HAMPSHIRE
  
CITY           SKY/WX    TMP DP  RH WIND       PRES   REMARKS
PORTSMOUTH     FAIR      31  14  50 SE12      30.33R                  
ROCHESTER      FAIR      30  14  51 SE9       30.31R                  
NASHUA         FAIR      36   6  28 S7        30.29F                  
MANCHESTER     CLOUDY    35   3  26 SE8       30.28F                  
CONCORD        FAIR      33   6  32 SE9       30.28S                  
LACONIA        FAIR      32   7  35 S7        30.27F                  
PLYMOUTH       FAIR      33   6  31 SE3       30.25F                  
BERLIN         FAIR      32   6  33 S7        30.19R                  
WHITEFIELD     FAIR      32   3  29 NW7       30.19R                  
JAFFREY        FAIR      35   9  33 S9        30.22S                  
KEENE          FAIR      36   5  27 S10       30.25S                  
LEBANON        FAIR      34  12  40 S7        30.22F                  
MT WASHINGTON  CLOUDY     9 -11  40 SW29G37     N/A  WCI -14          
$$

VTZ005-007-008-172100-
VERMONT
  
CITY           SKY/WX    TMP DP  RH WIND       PRES   REMARKS
ST JOHNSBURY     N/A     30   6  36 MISG      30.21S                  
MONTPELIER     FAIR      30   8  39 S12       30.21F                  
BURLINGTON     PTSUNNY   33   9  36 S13       30.20F                  
$$

MAZ007-012-024-CTZ003-RIZ002-NYZ038-NYZ072-172100-
SOUTHERN NEW ENGLAND AND NY
  
CITY           SKY/WX    TMP DP  RH WIND       PRES   REMARKS
BOSTON         CLOUDY    31  17  56 E14       30.35R                  
WORCESTER      FAIR      35   8  32 SE12      30.24F                  
NANTUCKET      FAIR      37  25  61 SE13G21   30.33F                  
PROVIDENCE     CLOUDY    36  18  48 S13       30.36R                  
HARTFORD       CLOUDY    38   9  30 S13       30.29S                  
ALBANY         CLOUDY    35  16  45 S7        30.22F                  
NEW YORK CITY  PTSUNNY   38  21  50 SE12      30.32S                  
$$

ANZ081-ANZ082-ANZ150-NHZ014-MEZ023>029-172100-
COASTAL MARINE OBSERVATIONS
  
STATION/POSITION TIME  TEMP    WIND        PRES    WAVE
                       AIR SEA DIR/SP/G            HT/PER
                 (UTC) (F)     (DEG/KT/KT) (MB)    (FT/S)
MOUNT DESERT ROC 2000   28     140/  4/  5 1028.4R
MATINICUS ROCK   2000   28     180/  9/ 11 1028.0R
ISLE OF SHOALS   2000   30     150/ 10/ 12 1027.2R
JEFFREYS LEDGE   1936      42                N/A     2/ 9
GEORGES BANK BUO 1850   31 42              1020.3   19/10
$$

.............KEY..............
   WCI - WIND CHILL
   TC  - TEMPERATURE IN CELSIUS
   VSB - VISIBILITY IN MILES
   HX  - HEAT INDEX
   FAIR- INDICATES FEW OR NO CLOUDS BELOW 12,000 FT, WITH NO 
         SIGNIFICANT WEATHER AND/OR OBSTRUCTIONS TO VISIBILITY.